Location: Observatoire
(46.1952°N, 5.3391°E)
Time: 23:00:41
(UTC+01:00)

Tiros 1 despin weight - Pass Details

Date: 18 February 2026
Orbit: 556 x 593 km, 48.2° (Epoch: 7 March)

Event Time Altitude Azimuth Distance (km) Brightness Sun altitude
Rises 18:06:38 0° 273° (W) 2,734 ? -0.5°
Reaches altitude 10° 18:08:55 10° 276° (W) 1,837 ? -0.9°
Maximum altitude 18:13:05 65° 359° (N) 612 ? -1.5°
Drops below altitude 10° 18:17:15 10° 82° (E) 1,839 ? -2.2°
Enters shadow 18:18:50 - 85° (E) 2,462 ? -2.5°
Sets 18:19:31 0° 85° (E) 2,736 - -2.6°
